www.pogodaiklimat.ru

Погода и климат >> Архив погоды >> Финляндия >> Соданкила Вуотсо


ПОГОДА в Соданкила Вуотсо

  • Прогноз погоды в Соданкила Вуотсо
  • Монитор погоды в Соданкила Вуотсо

АРХИВ ПОГОДЫ в Соданкила Вуотсо

Время (UTC), дата Ветер
(напр.,м/с)
 
Видим.   Явления Облачность Т
(С)
Тd
(С)
f
(%)
Тe
(С)
Тes
(С)
Комфортность P
(гПа)
Po
(гПа)
Тmin
(С)
Tmax
(С)
R
(мм)
R24
(мм)
S
(см)
07 11.07 С 2-4
{5}
30 км 9/9 2000 м
[]
+7.7 +2.4 69 +6 +7 1013.9 983.6
08 11.07 С 3-5
{5}
30 км 9/9
[]
+8.7 +2.4 65 +6 +7 1013.7 983.5
09 11.07 С 3-5
{7}
30 км 9/9
[]
+11.1 +2.2 54 +10 +10 1013.2 983.2
10 11.07 СВ 2 35 км 1/1 1000 м
[]
+12.3 +2.8 52 +12 +21 1012.7 982.9
11 11.07 СВ 3-5
{8}
30 км ясно +13.3 +0.8 42 +12 +21 1012.5 982.8
12 11.07 С 3-6
{8}
45 км ясно +13.6 +0.4 40 +13 +21 1012.2 982.5
13 11.07 С 3 40 км ясно +14.3 +0.9 40 +14 +20 1012.0 982.4
14 11.07 С 4 30 км ясно +14.4 +0.9 40 +13 +18 1011.9 982.3
15 11.07 С 3-5
{7}
29 км ясно +14.4 +0.9 40 +14 +18 1011.9 982.3
16 11.07 СВ 3 40 км 1/1 1500 м
[]
+14.1 +0.6 40 +13 +16 1011.8 982.2
17 11.07 С 3 50 км ясно +13.8 +0.2 39 +13 +14 1011.7 982.1
18 11.07 С 3-6
{7}
50 км ясно +13.1 +1.9 47 +12 +13 1012.0 982.2 +7.1 +14.8
19 11.07 С 3 50 км ясно +11.7 +2.5 53 +10 +11 1012.2 982.3
20 11.07 С 2 50 км ясно +9.5 +3.0 64 +8 +8 1012.6 982.5
21 11.07 С 1-2
{3}
50 км ясно +5.7 +3.0 83 +5 +5 1013.3 982.7
22 11.07 С 2-3
{4}
50 км ясно +3.7 +2.4 91 +1 +1 1013.5 982.8
23 11.07 С 2 50 км ясно +3.1 +0.9 85 0 0 1013.8 982.9
00 12.07 С 2-4
{4}
50 км ясно +3.4 +0.4 81 +1 +1 1013.7 982.9
01 12.07 С 2 50 км ясно +2.8 +0.1 82 -0 0 1013.6 982.7
02 12.07 С 2 50 км ясно +4.3 +0.8 78 +2 +2 1013.5 982.8
03 12.07 С 3-6
{6}
50 км ясно +5.6 +1.4 74 +2 +3 1013.3 982.8
04 12.07 С 3-6
{6}
45 км ясно +7.0 +1.4 68 +4 +6 1013.2 982.8
05 12.07 С 3-6
{7}
50 км ясно +8.5 +1.4 61 +6 +9 1013.0 982.8
06 12.07 С 4-7
{8}
50 км ясно +10.0 +1.3 55 +8 +11 1012.7 982.6 +2.4 +13.1
07 12.07 С 3 45 км ясно +12.1 +1.0 47 +11 +17 1012.4 982.6
08 12.07 С 3 45 км ясно +12.9 +0.4 42 +12 +19 1012.1 982.4
09 12.07 С 4-9
{9}
45 км ясно +13.3 +1.2 44 +12 +19 1011.9 982.2
10 12.07 С 3 45 км 1/1 1000 м
[]
+14.5 +1.4 41 +14 +22 1011.5 981.9
11 12.07 С 4 40 км ясно +14.4 -0.6 36 +13 +20 1011.4 981.9
12 12.07 С 3-7
{9}
45 км ясно +16.0 +0.3 34 +16 +24 1010.8 981.4
13 12.07 С 4-9
{11}
35 км ясно +16.4 +0.4 34 +16 +21 1010.8 981.4
14 12.07 С 4 50 км ясно +15.8 -1.6 30 +15 +19 1010.9 981.5
15 12.07 С 4-9
{9}
50 км ясно +15.3 -2.5 29 +15 +18 1010.9 981.5
16 12.07 С 4 50 км ясно +14.8 -2.4 30 +14 +16 1011.0 981.5
17 12.07 С 4-10
{10}
50 км ясно +14.0 -3.1 30 +13 +14 1011.3 981.7
18 12.07 СВ 3-7
{8}
50 км ясно +12.9 -1.8 36 +12 +13 1011.6 981.9 +9.8 +16.6
19 12.07 С 3-6
{8}
50 км 1/0
[]
+12.1 -0.3 42 +11 +11 1012.1 982.2
20 12.07 С 2 50 км ясно +10.0 +0.9 53 +9 +9 1012.8 982.8
21 12.07 С 2-4
{6}
50 км ясно +7.6 +0.1 59 +6 +6 1013.5 983.1
22 12.07 СВ 2-3
{5}
50 км ясно +5.8 0.0 66 +4 +4 1013.7 983.2
23 12.07 СВ 1 50 км ясно +3.8 +0.2 77 +3 +3 1014.1 983.3
00 13.07 СЗ 1-3
{3}
50 км ясно +3.3 +0.2 80 +2 +2 1014.3 983.4
01 13.07 С 1 50 км 9/1 600 м
[]
+5.4 +1.8 78 +4 +4 1014.2 983.6
02 13.07 С 2-4
{4}
45 км 9/9 300 м
[]
+5.5 +2.5 81 +3 +3 1014.4 983.8
03 13.07 СВ 1-3
{4}
26 км 10/10 300 м
[]
+5.6 +2.9 83 +4 +4 1014.5 984.0
04 13.07 С 1 20 км 9/9 300 м
[]
+5.6 +3.1 84 +4 +5 1014.8 984.2
05 13.07 С 2 22 км 9/9 200 м
[]
+5.6 +3.7 88 +3 +3 1015.0 984.4
06 13.07 СВ 3-6
{6}
45 км 10/10 300 м
[]
+6.4 +3.6 82 +3 +3 1014.9 984.4 +3.3 +12.9
07 13.07 СВ 3-4
{6}
50 км 10/10 300 м
[]
+6.5 +3.6 82 +3 +4 1015.1 984.6
08 13.07 С 3-5
{5}
50 км 10/0 300 м
[]
+7.3 +4.3 81 +4 +5 1015.0 984.6
09 13.07 С 3-6
{6}
40 км 10/10 300 м
[]
+7.8 +4.8 81 +5 +5 1015.0 984.7
10 13.07 С 2 45 км 9/9 300 м
[]
+7.9 +5.0 82 +6 +7 1015.0 984.7
11 13.07 С 3-6
{6}
30 км 10/10 300 м
[]
+8.7 +5.2 79 +6 +7 1014.7 984.5
12 13.07 С 3 45 км 10/10 300 м
[]
+8.6 +5.5 81 +6 +6 1014.8 984.5
13 13.07 С 2 40 км 9/9 300 м
[]
+9.8 +5.6 75 +8 +9 1014.4 984.3
14 13.07 СВ 2 50 км 9/9 300 м
[]
+10.8 +5.8 71 +10 +10 1014.3 984.3
15 13.07 СВ 2-4
{6}
50 км 9/6 1000 м
[]
+10.8 +6.0 72 +10 +11 1014.2 984.2
16 13.07 В 2 50 км 9/4 600 м
[]
+11.4 +6.4 71 +10 +11 1014.0 984.1
17 13.07 В 2 50 км 9/6 600 м
[]
+11.1 +6.7 74 +10 +10 1014.2 984.2
18 13.07 В 2-4
{4}
50 км 10/10 1500 м
[]
+10.8 +6.1 73 +10 +10 1014.3 984.3 +6.3 +11.6
19 13.07 В 2-5
{5}
50 км 6/1 600 м
[]
+10.8 +5.6 70 +10 +10 1014.3 984.3
20 13.07 В 2-4
{4}
45 км 9/6 1000 м
[]
+10.4 +5.5 72 +9 +9 1014.3 984.2
21 13.07 В 1-1
{2}
50 км 9/0
[]
+8.3 +5.6 83 +8 +8 1014.5 984.2
22 13.07 С 1 40 км 6/1
[]
+6.5 +5.5 93 +5 +5 1014.7 984.2
23 13.07 СВ 1 22 км 4/0
[]
+4.7 +4.5 99 +3 +3 1015.1 984.4
00 14.07 С 1-1
{1}
13 км 9/4 1500 м
[]
+4.2 +4.2 100 +3 +3 1015.4 984.6
01 14.07 штиль 0 19 км 9/9 1500 м
[]
+5.3 +5.1 99 +4 +4 1015.2 984.6
02 14.07 штиль 0 15 км 6/0
[]
+5.1 +5.0 99 +4 +4 1015.3 984.6
03 14.07 СВ 2-4
{4}
45 км 9/9 1000 м
[]
+7.4 +4.9 84 +5 +5 1015.2 984.8
04 14.07 СВ 2 40 км 9/9 1000 м
[]
+7.1 +4.0 81 +5 +5 1015.2 984.8
05 14.07 СВ 2 40 км 9/9 300 м
[]
+7.5 +3.4 75 +6 +6 1015.2 984.8
06 14.07 С 3-7
{7}
40 км 9/9 1500 м
[]
+8.3 +3.5 72 +6 +6 1015.0 984.7 +4.1 +11.1
07 14.07 СВ 3 30 км 4/4 600 м
[]
+9.1 +3.2 67 +7 +11 1014.9 984.7
08 14.07 С 2 40 км 9/9 600 м
[]
+10.3 +3.7 64 +9 +10 1014.7 984.6
09 14.07 СВ 2-6
{6}
35 км 6/6 600 м
[]
+11.1 +3.1 58 +10 +14 1014.5 984.5
10 14.07 С 3 45 км 9/9 1000 м
[]
+11.6 +2.9 55 +10 +11 1014.3 984.3
11 14.07 С 3 50 км 10/10 1000 м
[]
+11.4 +3.0 56 +10 +10 1014.4 984.4
12 14.07 С 2-4
{6}
45 км 9/9 1000 м
[]
+11.6 +2.8 55 +11 +12 1014.2 984.3
13 14.07 С 3-7
{7}
50 км 9/0 1000 м
[]
+11.4 +1.9 52 +10 +11 1014.1 984.2
14 14.07 С 3-5
{6}
50 км 9/0 1500 м
[]
+11.5 +2.8 55 +10 +11 1014.0 984.0
15 14.07 С 2-4
{5}
50 км 9/9 1000 м
[]
+11.2 +2.6 55 +10 +11 1014.1 984.1
16 14.07 С 1 50 км 10/10 1000 м
[]
+10.7 +3.4 61 +11 +11 1014.2 984.2
17 14.07 СВ 2 50 км 10/10 1000 м
[]
+10.7 +3.3 60 +10 +10 1014.1 984.1
18 14.07 СВ 1-3
{4}
50 км 9/9 1000 м
[]
+10.1 +2.9 61 +10 +10 1014.1 984.0 +8.3 +12.3
19 14.07 СВ 1-2
{4}
50 км 9/9 1000 м
[]
+9.7 +3.1 63 +9 +9 1014.0 983.9
20 14.07 В 1 50 км 10/10 1000 м
[]
+9.0 +3.9 70 +9 +9 1014.0 983.8
21 14.07 СВ 1-2
{2}
50 км 9/1 1500 м
[]
+6.7 +3.3 79 +6 +6 1014.4 983.9
22 14.07 С 1-3
{3}
50 км 9/9 1000 м
[]
+5.0 +3.6 91 +4 +4 1014.7 984.0
23 14.07 С 1 50 км 9/9 1000 м
[]
+5.5 +3.6 88 +4 +4 1014.5 983.9
00 15.07 С 1-2
{2}
50 км 9/6 1500 м
[]
+4.3 +3.1 92 +3 +3 1014.7 984.0
01 15.07 СЗ 1 50 км 9/9 1500 м
[]
+5.2 +3.9 91 +4 +4 1014.5 983.9
02 15.07 З 1-2
{2}
50 км 6/0 1500 м
[]
+5.4 +3.4 87 +4 +4 1014.5 983.9
03 15.07 С 1-2
{3}
40 км 1/1 2000 м
[]
+7.2 +3.6 78 +6 +8 1014.3 983.9
04 15.07 В 1-3
{3}
30 км 9/9 2000 м
[]
+8.8 +3.5 69 +8 +9 1014.0 983.8
05 15.07 В 2 30 км ясно +9.3 +2.2 61 +8 +12 1014.0 983.8
06 15.07 СВ 1-3
{4}
40 км 6/6 600 м
[]
+9.6 +2.3 60 +9 +12 1013.9 983.7 +4.3 +10.1
07 15.07 В 2-6
{6}
30 км 9/9 1000 м
[]
+10.5 +1.0 52 +10 +10 1013.6 983.5
08 15.07 В 2-5
{5}
29 км 10/10 1000 м
[]
+10.3 +1.1 53 +9 +10 1013.8 983.7
09 15.07 ЮВ 3-7
{7}
35 км 9/9 1000 м
[]
+11.5 +2.1 52 +10 +11 1013.6 983.7
10 15.07 В 2 45 км 9/9 1000 м
[]
+11.6 +1.7 51 +11 +12 1013.5 983.5
11 15.07 ЮВ 2 40 км 9/9 1000 м
[]
+11.9 +1.6 49 +11 +12 1013.3 983.4
12 15.07 В 2-5
{6}
45 км 6/6 1000 м
[]
+12.2 +1.7 49 +12 +15 1013.3 983.4
13 15.07 СВ 2 30 км слаб. ливневой дождь 9/9 1000 м
[]
+11.6 +2.1 52 +11 +12 1013.3 983.4
14 15.07 ЮВ 2-5
{6}
35 км в посл. час морось 10/10 1000 м
[]
+12.2 +2.3 51 +12 +12 1013.4 983.5
15 15.07 СВ 1-3
{4}
50 км {ливн. осадки, дождь} 9/9 1000 м
[]
+12.1 +2.3 51 +12 +13 1013.3 983.5
16 15.07 В 2 45 км 9/9 1000 м
[]
+12.1 +2.5 52 +11 +12 1013.5 983.6
17 15.07 С 1 50 км 1/1 1500 м
[]
+10.9 +3.7 61 +11 +13 1013.6 983.6
18 15.07 СВ 1-2
{2}
50 км {ливн. осадки, дождь} 4/4 1500 м
[]
+10.7 +3.4 61 +11 +11 1013.5 983.5 +9.6 +13.2
19 15.07 СВ 1 50 км 9/9
[]
+10.1 +4.0 66 +10 +10 1013.7 983.7
20 15.07 С 1 50 км 9/9
[]
+8.7 +4.3 74 +8 +8 1014.1 983.9
21 15.07 СВ 1-2
{2}
30 км 6/6
[]
+5.6 +4.0 89 +4 +4 1014.8 984.2
22 15.07 С 1-1
{2}
27 км 10/6 1500 м
[]
+4.2 +3.3 94 +3 +3 1015.1 984.3
23 15.07 штиль 0-1
{2}
25 км 10/0 1500 м
[]
+4.1 +3.3 95 +3 +3 1015.2 984.5
00 16.07 С 1-2
{2}
25 км 6/6 1500 м
[]
+4.0 +3.6 97 +2 +2 1015.4 984.6
01 16.07 С 1-1
{2}
35 км 10/0 1500 м
[]
+4.5 +3.9 96 +3 +3 1015.5 984.8
02 16.07 штиль 0 28 км 1/1 1500 м
[]
+4.8 +4.1 95 +4 +4 1015.6 984.9
03 16.07 С 1-1
{2}
45 км 6/6 1500 м
[]
+7.0 +5.6 91 +6 +6 1015.5 985.1
04 16.07 С 1 45 км 4/4 1500 м
[]
+8.1 +4.8 80 +7 +9 1015.6 985.3
05 16.07 СВ 3-4
{5}
40 км 1/0 1500 м
[]
+10.5 +2.8 59 +9 +12 1015.5 985.4
06 16.07 С 1-3
{5}
45 км 6/6 600 м
[]
+10.4 +3.6 63 +10 +13 1015.5 985.4 +3.6 +11.3
07 16.07 С 2-6
{6}
50 км 9/9 1000 м
[]
+10.6 +1.5 53 +10 +10 1015.5 985.4
08 16.07 С 3 50 км 10/10 1000 м
[]
+10.8 +2.0 55 +9 +9 1015.4 985.4
09 16.07 СВ 2-5
{6}
40 км 9/9 600 м
[]
+10.6 +2.5 57 +10 +11 1015.5 985.4
10 16.07 С 2-4
{5}
40 км 10/10 1000 м
[]
+10.6 +2.8 58 +10 +10 1015.6 985.5
11 16.07 С 3 45 км 10/10 1000 м
[]
+10.5 +3.7 63 +9 +9 1015.7 985.6
12 16.07 СЗ 2-4
{7}
45 км 10/10 600 м
[]
+11.1 +4.1 62 +10 +10 1015.3 985.3
14 16.07 С 3-5
{7}
50 км 10/10 1000 м
[]
+10.6 +3.7 62 +9 +9 1015.6 985.5
15 16.07 С 2-4
{5}
45 км 10/10 1000 м
[]
+10.7 +3.3 60 +10 +10 1015.6 985.5
16 16.07 С 3 50 км 10/10 600 м
[]
+10.9 +3.4 60 +9 +9 1015.6 985.5
17 16.07 С 2 50 км 10/10 1000 м
[]
+11.1 +3.5 59 +10 +10 1015.3 985.3
18 16.07 С 2-4
{5}
50 км 10/10 1000 м
[]
+10.2 +3.4 63 +9 +9 1015.5 985.4 +9.8 +11.5
19 16.07 С 1-2
{5}
50 км 9/0 1000 м
[]
+9.5 +4.2 69 +9 +9 1015.5 985.3
20 16.07 СВ 1-2
{4}
40 км 10/10 600 м
[]
+9.0 +4.7 74 +9 +9 1015.5 985.3
21 16.07 С 2-4
{4}
28 км 10/10 300 м
[]
+8.3 +4.9 79 +6 +6 1015.7 985.3
22 16.07 С 2-5
{5}
50 км 10/10 300 м
[]
+7.8 +5.1 83 +6 +6 1015.9 985.5
23 16.07 С 2-4
{6}
50 км 10/10 300 м
[]
+7.3 +4.9 85 +5 +5 1015.8 985.4
00 17.07 С 2-4
{4}
50 км 10/10 300 м
[]
+6.8 +4.8 87 +5 +5 1015.8 985.3
01 17.07 С 2 6000 м дымка 10/10 100 м
[]
+6.5 +5.8 95 +4 +4 1015.8 985.2
02 17.07 С 1 45 км в посл. час морось 10/10 200 м
[]
+6.5 +6.2 98 +5 +5 1015.6 985.1
03 17.07 С 2-3
{4}
40 км {ливн. осадки, морось} 10/10 200 м
[]
+6.9 +6.2 95 +5 +5 1015.3 984.8
04 17.07 С 2 50 км 10/10 200 м
[]
+7.2 +6.2 93 +5 +5 1015.1 984.6
05 17.07 СЗ 2 23 км 10/10 200 м
[]
+7.5 +6.3 92 +5 +5 1015.0 984.6
06 17.07 СЗ 2-3
{4}
50 км {ливн. осадки, морось} 10/10 300 м
[]
+8.6 +6.1 84 +7 +7 1014.4 984.2 +6.2 +10.2 0.1
07 17.07 СЗ 1-3
{4}
50 км 10/10 300 м
[]
+9.0 +6.3 83 +8 +8 1014.2 984.0
08 17.07 С 2-4
{5}
50 км 10/10 600 м
[]
+10.2 +5.5 73 +9 +9 1014.0 984.0
09 17.07 СЗ 2-3
{4}
50 км 10/10 600 м
[]
+10.1 +5.0 71 +9 +9 1014.1 984.0
10 17.07 СЗ 2 50 км 10/10 600 м
[]
+10.7 +5.7 71 +10 +10 1013.9 983.9
11 17.07 З 2 30 км 9/9 600 м
[]
+10.4 +6.2 75 +9 +10 1014.0 984.0
12 17.07 СЗ 2-4
{5}
50 км {ливн. осадки, дождь} 9/9 600 м
[]
+11.8 +5.5 65 +11 +12 1013.4 983.5
13 17.07 З 2 50 км 9/9 600 м
[]
+12.1 +5.1 62 +11 +12 1013.3 983.4
14 17.07 З 2 50 км 9/9 600 м
[]
+12.7 +4.6 58 +12 +13 1013.1 983.3
15 17.07 ЮЗ 2-4
{6}
50 км 10/10 1000 м
[]
+12.9 +5.4 60 +12 +12 1013.2 983.4
16 17.07 ЮЗ 2 50 км 10/10 1500 м
[]
+12.7 +5.7 62 +12 +12 1013.2 983.4
17 17.07 Ю 2 50 км 9/9 1500 м
[]
+12.8 +5.9 63 +12 +12 1013.3 983.5
18 17.07 Ю 2-4
{4}
50 км 10/10 1500 м
[]
+12.5 +6.0 65 +12 +12 1013.6 983.7 +8.6 +13.1
19 17.07 Ю 1 50 км 6/6 1500 м
[]
+11.2 +6.0 70 +11 +11 1013.9 983.9
20 17.07 Ю 1 50 км 4/4 1500 м
[]
+9.1 +6.0 81 +9 +9 1014.4 984.2
21 17.07 Ю 1-3
{3}
50 км 9/9 1500 м
[]
+8.8 +6.2 84 +8 +8 1014.8 984.5
22 17.07 штиль 0-1
{2}
50 км 9/9 1500 м
[]
+7.4 +6.1 91 +6 +6 1015.4 985.0
23 17.07 штиль 0 50 км 9/9 1500 м
[]
+5.8 +5.2 96 +5 +5 1015.8 985.2
00 18.07 В 1-3
{3}
50 км 1/1 1500 м
[]
+5.9 +5.3 96 +5 +5 1016.2 985.6
01 18.07 В 1 50 км ясно +4.9 +4.7 99 +3 +3 1016.4 985.7
02 18.07 СВ 1 50 км ясно +4.5 +4.2 98 +3 +3 1016.7 985.9
03 18.07 В 1-2
{2}
45 км ясно +6.9 +6.9 100 +6 +7 1016.8 986.3
04 18.07 ЮВ 1 50 км ясно +10.1 +7.8 86 +10 +12 1016.7 986.5
05 18.07 В 2 40 км ясно +12.1 +6.3 68 +11 +15 1016.5 986.5
06 18.07 ЮВ 2-4
{5}
45 км ясно +13.4 +6.1 61 +13 +18 1016.4 986.6 +4.3 +13.6
07 18.07 В 2 45 км ясно +14.0 +6.4 60 +14 +21 1016.4 986.7
08 18.07 ЮВ 3 40 км 1/1 600 м
[]
+15.0 +6.7 58 +14 +21 1016.2 986.6

 

Местоположение метеостанции Соданкила Вуотсо (Финляндия): широта 68.08 долгота 27.19 высота над уровнем моря 248 м.

В архиве по умолчанию представлена погода в Соданкила Вуотсо за последнюю неделю. Архивные данные за месяц целиком и за предыдущие месяцы, начиная с января 2011 года, Вы можете получить, выбрав интересующий диапазон дат из раскрывающегося списка и нажав кнопку "Ввод!".


*Определитесь, кто Вы:
робот инопланетянин человек

Внимание! Время в таблицах - всемирное. Для получения местного времени необходимо прибавить поправку, которая равна 1 ч.

Смотрите также архив погоды в соседних городах и на ближайших метеорологических станциях:

Погода в Соданкила Локка (Финляндия) (37 км)
Погода в Саариселькя (Финляндия) (39 км)
Погода в Саариселькя (Финляндия) (40 км)
Погода в Киттила Покка (Финляндия) (59 км)
Погода в Аэропорту Ивало (Финляндия) (60 км)
Погода в Инари Раджайосеппи (Финляндия) (64 км)
Погода в Соданкюля (Финляндия) (82 км)
Погода в Верховье Лотты (Мурманская область, Россия) (87 км)
Погода в Неллиме (Финляндия) (97 км)
Погода в Савукоски (Финляндия) (97 км)

Пояснения к столбцам:

Ветер - указаны скорость ветра в м/с - средняя за 10 мин, порывы в срок и между сроками (в фигурных скобках) и направление, откуда дует ветер: С - северный, СВ - северо-восточный, В - восточный, ЮВ - юго-восточный, Ю - южный, ЮЗ - юго-западный, З - западный, СЗ - северо-западный.
Видимость - горизонтальная дальность видимости в метрах или километрах. При видимости от 1 до 10 км при отсутствии осадков обычно наблюдается дымка, при ухудшении видимости до 1 км и менее - туман. В сухую погоду видимость может ухудшаться дымом, пылью или мглою.
Явления - указаны атмосферные явления, наблюдавшиеся в срок или в последний час перед сроком; фигурными скобками обозначены явления, наблюдавшиеся между сроками (за 1-3 часа до срока); квадратными скобками обозначены град или гололедные отложения с указанием их диаметра в мм.
Облачность - указаны через наклонную черту общая и нижняя облачность в баллах и высота нижней границы облаков в метрах; квадратными скобками обозначены формы облаков: Ci - перистые, Cs - перисто-слоистые, Cc - перисто-кучевые, Ac - высококучевые, As - высокослоистые, Sc - слоисто-кучевые, Ns - слоисто-дождевые, Cu - кучевые, Cb - кучево-дождевые. Подробнее классификацию облаков см. в Атласе облаков (PDF).
T - Температура воздуха - температура, измеренная на высоте 2 м над землей.
Td - Температура точки росы - температура, при понижении до которой содержащийся в воздухе водяной пар достигнет насыщения.
f - Относительная влажность воздуха - влажноcть воздуха, измеренная на высоте 2 м над землей.
Te - Эффективная температура - температура, которую ощущает одетый по сезону человек в тени. Характеристика душности погоды. При расчете учитывается влияние влажности воздуха и скорости ветра на теплоощущения человека.
Tes - Эффективная температура на солнце - температура, которую ощущает человек, с поправкой на солнечный нагрев. Характеристика знойности погоды. Зависит от высоты солнца над горизонтом, облачности и скорости ветра. Ночью, в пасмурную погоду, а также при ветре 12 м/с и более поправка равна нулю.
P - Атмосферное давление - приведенное к уровню моря атмосферное давление.
Po - Атмосферное давление - измеренное на уровне метеостанции атмосферное давление.
Tmin - Минимальная температура - минимум температуры воздуха на высоте 2 м над землей.
Tmax - Максимальная температура - максимум температуры воздуха на высоте 2 м над землей.
R - Количество осадков - Количество выпавших осадков за период времени, мм. При наведении курсора мыши на число - период времени, за который выпало указанное количество осадков.
R24 - Количество осадков - Количество выпавших осадков за 24 часа, мм.
S - Снежный покров - Высота снежного покрова, см. При наведении курсора мыши на число - состояние снежного покрова и степень покрытия местности в баллах.